Back to catalog

METEOR 2-17 DEB

LostPO
NORAD 44697·DEBRIS·🇷🇺 Russia

Launched Jan 30, 1988 from Plesetsk Cosmodrome

Loading…

Next Passes (next 24 hours)

TLE

StaleSource: Space-Track

Epoch: Aug 12, 2026, 02:29 UTC

1 44697U 88005BA  26224.10381488  .00001346  00000-0  74050-3 0  9993
2 44697  82.5217 155.7594 0018711   6.8893 353.2535 14.10931323595467

Track METEOR 2-17 DEB in real time with AllMySat

Download on the App Store